Time,TemperatureF,DewpointF,PressureIn,WindDirection,WindDirectionDegrees,WindSpeedMPH,WindSpeedGustMPH,Humidity,HourlyPrecipIn,Conditions,Clouds,dailyrainin,SoftwareType,DateUTC
2013-08-08 00:01:00,67.3,63.0,30.20,ESE,120,2.0,-999.0,86,-99.99,,,-99.99,custom,2013-08-08 04:01:00,
2013-08-08 00:06:00,67.3,63.7,30.23,SE,145,1.0,-999.0,88,-99.99,,,-99.99,custom,2013-08-08 04:06:00,
2013-08-08 00:11:00,66.7,62.2,30.23,SSE,159,3.0,-999.0,85,-99.99,,,-99.99,custom,2013-08-08 04:11:00,
2013-08-08 00:16:00,66.6,61.9,30.20,SSE,147,3.0,-999.0,85,-99.99,,,-99.99,custom,2013-08-08 04:16:00,
2013-08-08 00:21:00,66.4,62.2,30.20,SE,142,2.0,-999.0,87,-99.99,,,-99.99,custom,2013-08-08 04:21:00,
2013-08-08 00:26:00,66.6,63.0,30.21,SSE,148,1.0,-999.0,88,-99.99,,,-99.99,custom,2013-08-08 04:26:00,
2013-08-08 00:31:00,66.6,62.8,30.19,ESE,116,3.0,-999.0,88,-99.99,,,-99.99,custom,2013-08-08 04:31:00,
2013-08-08 00:36:00,66.4,63.0,30.21,SSE,165,3.0,-999.0,88,-99.99,,,-99.99,custom,2013-08-08 04:36:00,
2013-08-08 00:41:00,66.6,62.6,30.22,SSE,160,2.0,-999.0,87,-99.99,,,-99.99,custom,2013-08-08 04:41:00,
2013-08-08 00:46:00,66.4,62.6,30.22,SE,128,1.0,-999.0,88,-99.99,,,-99.99,custom,2013-08-08 04:46:00,
2013-08-08 00:51:00,66.2,61.7,30.20,SSE,164,3.0,-999.0,85,-99.99,,,-99.99,custom,2013-08-08 04:51:00,
2013-08-08 00:56:00,66.6,63.0,30.19,SE,128,2.0,-999.0,88,-99.99,,,-99.99,custom,2013-08-08 04:56:00,
2013-08-08 01:01:00,66.7,63.3,30.19,ESE,116,2.0,-999.0,88,-99.99,,,-99.99,custom,2013-08-08 05:01:00,
2013-08-08 01:06:00,66.6,62.2,30.19,SE,126,2.0,-999.0,86,-99.99,,,-99.99,custom,2013-08-08 05:06:00,
2013-08-08 01:11:00,66.4,62.4,30.18,SE,127,1.0,-999.0,87,-99.99,,,-99.99,custom,2013-08-08 05:11:00,
2013-08-08 01:16:00,66.4,62.2,30.18,ESE,109,3.0,-999.0,86,-99.99,,,-99.99,custom,2013-08-08 05:16:00,
2013-08-08 01:21:00,66.2,61.7,30.18,SSE,153,2.0,-999.0,85,-99.99,,,-99.99,custom,2013-08-08 05:21:00,
2013-08-08 01:26:00,66.4,62.6,30.20,SSE,158,2.0,-999.0,87,-99.99,,,-99.99,custom,2013-08-08 05:26:00,
2013-08-08 01:31:00,66.2,61.3,30.20,SE,138,2.0,-999.0,84,-99.99,,,-99.99,custom,2013-08-08 05:31:00,
2013-08-08 01:36:00,66.7,63.0,30.19,SE,133,1.0,-999.0,88,-99.99,,,-99.99,custom,2013-08-08 05:36:00,
2013-08-08 01:41:00,66.7,63.0,30.19,SSE,156,2.0,-999.0,87,-99.99,,,-99.99,custom,2013-08-08 05:41:00,
2013-08-08 01:46:00,66.6,63.0,30.19,SE,135,1.0,-999.0,88,-99.99,,,-99.99,custom,2013-08-08 05:46:00,
2013-08-08 01:51:00,66.2,61.9,30.16,ESE,112,2.0,-999.0,86,-99.99,,,-99.99,custom,2013-08-08 05:51:00,
2013-08-08 01:56:00,66.6,62.2,30.15,SSE,151,2.0,-999.0,86,-99.99,,,-99.99,custom,2013-08-08 05:56:00,
2013-08-08 02:01:00,66.2,61.5,30.16,SE,142,2.0,-999.0,85,-99.99,,,-99.99,custom,2013-08-08 06:01:00,
2013-08-08 02:06:00,66.2,61.9,30.19,SE,142,2.0,-999.0,86,-99.99,,,-99.99,custom,2013-08-08 06:06:00,
2013-08-08 02:11:00,66.2,62.8,30.15,SE,143,1.0,-999.0,89,-99.99,,,-99.99,custom,2013-08-08 06:11:00,
2013-08-08 02:16:00,66.2,62.2,30.18,ESE,112,4.0,-999.0,87,-99.99,,,-99.99,custom,2013-08-08 06:16:00,
2013-08-08 02:21:00,66.6,63.1,30.21,ESE,118,2.0,-999.0,88,-99.99,,,-99.99,custom,2013-08-08 06:21:00,
2013-08-08 02:26:00,66.6,62.6,30.16,SE,129,2.0,-999.0,87,-99.99,,,-99.99,custom,2013-08-08 06:26:00,
2013-08-08 02:31:00,65.5,61.5,30.18,SSE,159,3.0,-999.0,87,-99.99,,,-99.99,custom,2013-08-08 06:31:00,
2013-08-08 02:36:00,66.0,62.4,30.18,SSE,152,2.0,-999.0,88,-99.99,,,-99.99,custom,2013-08-08 06:36:00,
2013-08-08 02:41:00,66.2,63.5,30.20,SSE,153,2.0,-999.0,91,-99.99,,,-99.99,custom,2013-08-08 06:41:00,
2013-08-08 02:46:00,66.2,62.8,30.18,SE,136,3.0,-999.0,89,-99.99,,,-99.99,custom,2013-08-08 06:46:00,
2013-08-08 02:51:00,66.4,64.0,30.18,SSE,148,1.0,-999.0,92,-99.99,,,-99.99,custom,2013-08-08 06:51:00,
2013-08-08 02:56:00,65.8,63.3,30.18,SSE,150,1.0,-999.0,91,-99.99,,,-99.99,custom,2013-08-08 06:56:00,
2013-08-08 03:01:00,66.0,63.7,30.15,ESE,114,2.0,-999.0,92,-99.99,,,-99.99,custom,2013-08-08 07:01:00,
2013-08-08 03:06:00,66.0,64.2,30.20,SSE,151,2.0,-999.0,94,-99.99,,,-99.99,custom,2013-08-08 07:06:00,
2013-08-08 03:11:00,66.6,63.9,30.14,ESE,106,2.0,-999.0,91,-99.99,,,-99.99,custom,2013-08-08 07:11:00,
2013-08-08 03:16:00,66.7,64.2,30.22,SE,135,1.0,-999.0,91,-99.99,,,-99.99,custom,2013-08-08 07:16:00,
2013-08-08 03:21:00,66.7,63.9,30.20,SE,144,2.0,-999.0,90,-99.99,,,-99.99,custom,2013-08-08 07:21:00,
2013-08-08 03:26:00,66.7,64.0,30.16,SE,132,1.0,-999.0,91,-99.99,,,-99.99,custom,2013-08-08 07:26:00,
2013-08-08 03:31:00,67.1,64.2,30.16,SE,134,2.0,-999.0,90,-99.99,,,-99.99,custom,2013-08-08 07:31:00,
2013-08-08 03:36:00,67.5,64.4,30.16,SE,131,2.0,-999.0,90,-99.99,,,-99.99,custom,2013-08-08 07:36:00,
2013-08-08 03:41:00,66.9,64.0,30.16,SE,144,2.0,-999.0,91,-99.99,,,-99.99,custom,2013-08-08 07:41:00,
2013-08-08 03:46:00,66.7,63.0,30.18,SE,125,2.0,-999.0,87,-99.99,,,-99.99,custom,2013-08-08 07:46:00,
2013-08-08 03:51:00,66.7,63.9,30.16,SE,140,2.0,-999.0,90,-99.99,,,-99.99,custom,2013-08-08 07:51:00,
2013-08-08 03:56:00,66.7,64.0,30.16,ESE,120,1.0,-999.0,91,-99.99,,,-99.99,custom,2013-08-08 07:56:00,
2013-08-08 04:01:00,66.9,64.0,30.15,SE,141,2.0,-999.0,90,-99.99,,,-99.99,custom,2013-08-08 08:01:00,
2013-08-08 04:06:00,66.9,64.6,30.14,SE,138,1.0,-999.0,92,-99.99,,,-99.99,custom,2013-08-08 08:06:00,
2013-08-08 04:12:00,67.1,64.8,30.16,SSE,157,2.0,-999.0,92,-99.99,,,-99.99,custom,2013-08-08 08:12:00,
2013-08-08 04:17:00,66.9,64.6,30.17,SSE,155,2.0,-999.0,92,-99.99,,,-99.99,custom,2013-08-08 08:17:00,
2013-08-08 04:22:00,67.3,64.9,30.15,SE,132,1.0,-999.0,92,-99.99,,,-99.99,custom,2013-08-08 08:22:00,
2013-08-08 04:27:00,66.9,64.0,30.17,SE,128,2.0,-999.0,90,-99.99,,,-99.99,custom,2013-08-08 08:27:00,
2013-08-08 04:32:00,67.1,65.1,30.16,SE,140,1.0,-999.0,93,-99.99,,,-99.99,custom,2013-08-08 08:32:00,
2013-08-08 04:37:00,66.9,64.0,30.15,SSE,154,2.0,-999.0,90,-99.99,,,-99.99,custom,2013-08-08 08:37:00,
2013-08-08 04:42:00,66.7,64.4,30.15,SE,138,2.0,-999.0,92,-99.99,,,-99.99,custom,2013-08-08 08:42:00,
2013-08-08 04:47:00,67.5,65.5,30.14,SE,126,2.0,-999.0,93,-99.99,,,-99.99,custom,2013-08-08 08:47:00,
2013-08-08 04:52:00,67.3,65.1,30.15,ESE,115,2.0,-999.0,93,-99.99,,,-99.99,custom,2013-08-08 08:52:00,
2013-08-08 04:57:00,67.1,64.0,30.14,ESE,110,4.0,-999.0,90,-99.99,,,-99.99,custom,2013-08-08 08:57:00,
2013-08-08 05:02:00,66.9,65.3,30.17,SSE,149,2.0,-999.0,94,-99.99,,,-99.99,custom,2013-08-08 09:02:00,
2013-08-08 05:07:00,67.1,65.3,30.16,SE,126,1.0,-999.0,94,-99.99,,,-99.99,custom,2013-08-08 09:07:00,
2013-08-08 05:12:00,67.1,65.3,30.17,SE,141,1.0,-999.0,94,-99.99,,,-99.99,custom,2013-08-08 09:12:00,
2013-08-08 05:17:00,66.4,65.1,30.14,SSE,151,2.0,-999.0,95,-99.99,,,-99.99,custom,2013-08-08 09:17:00,
2013-08-08 05:22:00,66.0,65.3,30.13,SSE,164,2.0,-999.0,98,-99.99,,,-99.99,custom,2013-08-08 09:22:00,
2013-08-08 05:27:00,65.8,65.5,30.15,SE,132,1.0,-999.0,99,-99.99,,,-99.99,custom,2013-08-08 09:27:00,
2013-08-08 05:32:00,65.5,65.1,30.13,SSE,161,2.0,-999.0,99,-99.99,,,-99.99,custom,2013-08-08 09:32:00,
2013-08-08 05:37:00,65.5,65.3,30.16,SE,137,1.0,-999.0,99,-99.99,,,-99.99,custom,2013-08-08 09:37:00,
2013-08-08 05:42:00,65.8,65.7,30.15,SE,129,1.0,-999.0,99,-99.99,,,-99.99,custom,2013-08-08 09:42:00,
2013-08-08 05:47:00,65.5,65.3,30.16,South,173,3.0,-999.0,99,-99.99,,,-99.99,custom,2013-08-08 09:47:00,
2013-08-08 05:52:00,65.3,64.8,30.16,SSE,167,3.0,-999.0,98,-99.99,,,-99.99,custom,2013-08-08 09:52:00,
2013-08-08 05:57:00,65.1,64.9,30.14,SE,141,2.0,-999.0,99,-99.99,,,-99.99,custom,2013-08-08 09:57:00,
2013-08-08 06:02:00,64.9,64.4,30.15,SE,142,2.0,-999.0,98,-99.99,,,-99.99,custom,2013-08-08 10:02:00,
2013-08-08 06:07:00,64.4,64.2,30.16,SSE,159,2.0,-999.0,99,-99.99,,,-99.99,custom,2013-08-08 10:07:00,
2013-08-08 06:12:00,64.8,64.6,30.14,SE,145,1.0,-999.0,99,-99.99,,,-99.99,custom,2013-08-08 10:12:00,
2013-08-08 06:17:00,64.9,64.8,30.12,SE,130,2.0,-999.0,99,-99.99,,,-99.99,custom,2013-08-08 10:17:00,
2013-08-08 06:22:00,64.9,64.8,30.14,SSE,155,2.0,-999.0,99,-99.99,,,-99.99,custom,2013-08-08 10:22:00,
2013-08-08 06:27:00,64.9,64.8,30.14,SSE,160,2.0,-999.0,99,-99.99,,,-99.99,custom,2013-08-08 10:27:00,
2013-08-08 06:32:00,64.6,64.4,30.13,South,173,3.0,-999.0,99,-99.99,,,-99.99,custom,2013-08-08 10:32:00,
2013-08-08 06:37:00,64.6,64.4,30.12,SSE,168,4.0,-999.0,99,-99.99,,,-99.99,custom,2013-08-08 10:37:00,
2013-08-08 06:42:00,64.9,64.8,30.16,SSE,160,3.0,-999.0,99,-99.99,,,-99.99,custom,2013-08-08 10:42:00,
2013-08-08 06:47:00,65.5,65.3,30.15,SE,140,1.0,-999.0,99,-99.99,,,-99.99,custom,2013-08-08 10:47:00,
2013-08-08 06:52:00,65.5,65.3,30.16,SSE,164,3.0,-999.0,99,-99.99,,,-99.99,custom,2013-08-08 10:52:00,
2013-08-08 06:57:00,65.1,64.9,30.16,SSE,162,3.0,-999.0,99,-99.99,,,-99.99,custom,2013-08-08 10:57:00,
2013-08-08 07:02:00,65.7,65.5,30.15,SSW,192,2.0,-999.0,99,-99.99,,,-99.99,custom,2013-08-08 11:02:00,
2013-08-08 07:07:00,65.5,65.3,30.16,SSE,161,1.0,-999.0,99,-99.99,,,-99.99,custom,2013-08-08 11:07:00,
2013-08-08 07:12:00,65.3,65.1,30.12,SSE,163,3.0,-999.0,99,-99.99,,,-99.99,custom,2013-08-08 11:12:00,
2013-08-08 07:17:00,65.7,65.5,30.16,SSE,155,3.0,-999.0,99,-99.99,,,-99.99,custom,2013-08-08 11:17:00,
2013-08-08 07:22:00,66.0,65.8,30.17,SSE,160,2.0,-999.0,99,-99.99,,,-99.99,custom,2013-08-08 11:22:00,
2013-08-08 07:27:00,66.7,66.6,30.16,SSE,149,2.0,-999.0,99,-99.99,,,-99.99,custom,2013-08-08 11:27:00,
2013-08-08 07:32:00,66.4,66.2,30.14,South,171,2.0,-999.0,99,-99.99,,,-99.99,custom,2013-08-08 11:32:00,
2013-08-08 07:37:00,66.4,66.2,30.14,South,170,2.0,-999.0,99,-99.99,,,-99.99,custom,2013-08-08 11:37:00,
2013-08-08 07:42:00,66.6,66.4,30.15,South,173,1.0,-999.0,99,-99.99,,,-99.99,custom,2013-08-08 11:42:00,
2013-08-08 07:47:00,66.7,66.6,30.17,SE,131,3.0,-999.0,99,-99.99,,,-99.99,custom,2013-08-08 11:47:00,
2013-08-08 07:52:00,67.5,67.3,30.17,SSE,159,3.0,-999.0,99,-99.99,,,-99.99,custom,2013-08-08 11:52:00,
2013-08-08 07:57:00,67.5,67.1,30.19,SSE,161,5.0,-999.0,99,-99.99,,,-99.99,custom,2013-08-08 11:57:00,
2013-08-08 08:02:00,67.5,67.3,30.19,SSE,154,3.0,-999.0,99,-99.99,,,-99.99,custom,2013-08-08 12:02:00,
2013-08-08 08:07:00,67.8,67.6,30.16,South,172,4.0,-999.0,99,-99.99,,,-99.99,custom,2013-08-08 12:07:00,
2013-08-08 08:12:00,68.2,68.0,30.16,SSE,155,2.0,-999.0,99,-99.99,,,-99.99,custom,2013-08-08 12:12:00,
2013-08-08 08:17:00,68.5,68.4,30.11,SSE,161,2.0,-999.0,99,-99.99,,,-99.99,custom,2013-08-08 12:17:00,
2013-08-08 08:22:00,68.5,68.4,30.13,SSE,166,3.0,-999.0,99,-99.99,,,-99.99,custom,2013-08-08 12:22:00,
2013-08-08 08:27:00,68.9,68.7,30.14,SSE,153,3.0,-999.0,99,-99.99,,,-99.99,custom,2013-08-08 12:27:00,
2013-08-08 08:32:00,68.7,68.5,30.14,SSE,158,3.0,-999.0,99,-99.99,,,-99.99,custom,2013-08-08 12:32:00,
2013-08-08 08:37:00,68.7,68.5,30.14,SSE,165,3.0,-999.0,99,-99.99,,,-99.99,custom,2013-08-08 12:37:00,
2013-08-08 08:42:00,68.7,68.5,30.13,South,178,2.0,-999.0,99,-99.99,,,-99.99,custom,2013-08-08 12:42:00,
2013-08-08 08:47:00,69.1,68.9,30.13,SW,223,1.0,-999.0,99,-99.99,,,-99.99,custom,2013-08-08 12:47:00,
2013-08-08 08:52:00,69.4,69.3,30.15,SSE,166,2.0,-999.0,99,-99.99,,,-99.99,custom,2013-08-08 12:52:00,
2013-08-08 08:57:00,68.9,68.4,30.14,SSE,166,5.0,-999.0,98,-99.99,,,-99.99,custom,2013-08-08 12:57:00,
2013-08-08 09:02:00,69.3,69.1,30.14,South,171,2.0,-999.0,99,-99.99,,,-99.99,custom,2013-08-08 13:02:00,
2013-08-08 09:07:00,70.0,69.8,30.16,SSE,153,1.0,-999.0,99,-99.99,,,-99.99,custom,2013-08-08 13:07:00,
2013-08-08 09:12:00,70.0,69.6,30.15,SE,145,2.0,-999.0,98,-99.99,,,-99.99,custom,2013-08-08 13:12:00,
2013-08-08 09:17:00,70.3,70.2,30.16,SSE,159,1.0,-999.0,99,-99.99,,,-99.99,custom,2013-08-08 13:17:00,
2013-08-08 09:22:00,70.5,70.3,30.15,SSE,167,2.0,-999.0,99,-99.99,,,-99.99,custom,2013-08-08 13:22:00,
2013-08-08 09:27:00,70.5,70.3,30.17,SSE,158,2.0,-999.0,99,-99.99,,,-99.99,custom,2013-08-08 13:27:00,
2013-08-08 09:32:00,70.2,70.0,30.15,SE,145,1.0,-999.0,99,-99.99,,,-99.99,custom,2013-08-08 13:32:00,
2013-08-08 09:37:00,70.5,70.3,30.14,South,175,1.0,-999.0,99,-99.99,,,-99.99,custom,2013-08-08 13:37:00,
2013-08-08 09:42:00,70.9,70.5,30.14,SSE,161,2.0,-999.0,99,-99.99,,,-99.99,custom,2013-08-08 13:42:00,
2013-08-08 09:47:00,72.0,71.4,30.16,ESE,114,1.0,-999.0,98,-99.99,,,-99.99,custom,2013-08-08 13:47:00,
2013-08-08 09:52:00,73.2,72.3,30.16,South,177,1.0,-999.0,97,-99.99,,,-99.99,custom,2013-08-08 13:52:00,
2013-08-08 09:57:00,73.0,72.5,30.14,South,174,1.0,-999.0,98,-99.99,,,-99.99,custom,2013-08-08 13:57:00,
2013-08-08 10:02:00,73.8,73.2,30.15,SSE,151,1.0,-999.0,98,-99.99,,,-99.99,custom,2013-08-08 14:02:00,
2013-08-08 10:07:00,75.0,74.7,30.15,South,189,0.0,-999.0,98,-99.99,,,-99.99,custom,2013-08-08 14:07:00,
2013-08-08 10:12:00,75.2,72.3,30.15,SSE,164,3.0,-999.0,91,-99.99,,,-99.99,custom,2013-08-08 14:12:00,
2013-08-08 10:17:00,75.7,74.5,30.15,South,181,2.0,-999.0,96,-99.99,,,-99.99,custom,2013-08-08 14:17:00,
2013-08-08 10:22:00,74.7,71.2,30.16,SSW,196,3.0,-999.0,89,-99.99,,,-99.99,custom,2013-08-08 14:22:00,
2013-08-08 10:27:00,73.4,71.6,30.14,WSW,241,1.0,-999.0,94,-99.99,,,-99.99,custom,2013-08-08 14:27:00,
2013-08-08 10:32:00,73.8,73.4,30.14,SSW,192,1.0,-999.0,99,-99.99,,,-99.99,custom,2013-08-08 14:32:00,
2013-08-08 10:37:00,73.9,73.2,30.16,South,176,1.0,-999.0,97,-99.99,,,-99.99,custom,2013-08-08 14:37:00,
2013-08-08 10:42:00,74.3,73.0,30.19,SW,226,1.0,-999.0,96,-99.99,,,-99.99,custom,2013-08-08 14:42:00,
2013-08-08 10:47:00,74.8,73.8,30.16,SSE,154,2.0,-999.0,97,-99.99,,,-99.99,custom,2013-08-08 14:47:00,
2013-08-08 10:52:00,75.0,72.9,30.22,SW,219,0.0,-999.0,93,-99.99,,,-99.99,custom,2013-08-08 14:52:00,
2013-08-08 10:57:00,75.9,72.7,30.20,SSE,154,3.0,-999.0,90,-99.99,,,-99.99,custom,2013-08-08 14:57:00,
2013-08-08 11:02:00,75.4,73.6,30.13,SE,144,2.0,-999.0,94,-99.99,,,-99.99,custom,2013-08-08 15:02:00,
2013-08-08 11:07:00,74.3,73.8,30.20,South,172,3.0,-999.0,98,-99.99,,,-99.99,custom,2013-08-08 15:07:00,
2013-08-08 11:12:00,74.7,72.1,30.13,ESE,120,2.0,-999.0,92,-99.99,,,-99.99,custom,2013-08-08 15:12:00,
2013-08-08 11:17:00,74.8,74.1,30.15,SSE,154,1.0,-999.0,97,-99.99,,,-99.99,custom,2013-08-08 15:17:00,
2013-08-08 11:22:00,75.4,74.5,30.14,SE,142,2.0,-999.0,97,-99.99,,,-99.99,custom,2013-08-08 15:22:00,
2013-08-08 11:27:00,76.1,75.2,30.15,SE,144,1.0,-999.0,97,-99.99,,,-99.99,custom,2013-08-08 15:27:00,
2013-08-08 11:32:00,77.0,75.0,30.16,SSE,149,2.0,-999.0,93,-99.99,,,-99.99,custom,2013-08-08 15:32:00,
2013-08-08 11:37:00,77.4,74.1,30.15,South,172,3.0,-999.0,89,-99.99,,,-99.99,custom,2013-08-08 15:37:00,
2013-08-08 11:42:00,77.5,74.7,30.14,WSW,250,2.0,-999.0,91,-99.99,,,-99.99,custom,2013-08-08 15:42:00,
2013-08-08 11:47:00,77.0,74.3,30.15,ESE,122,2.0,-999.0,91,-99.99,,,-99.99,custom,2013-08-08 15:47:00,
2013-08-08 11:52:00,77.4,73.8,30.12,SE,145,1.0,-999.0,88,-99.99,,,-99.99,custom,2013-08-08 15:52:00,
2013-08-08 11:57:00,77.9,75.9,30.13,SE,142,2.0,-999.0,93,-99.99,,,-99.99,custom,2013-08-08 15:57:00,
2013-08-08 12:02:00,77.9,75.4,30.11,South,190,1.0,-999.0,92,-99.99,,,-99.99,custom,2013-08-08 16:02:00,
2013-08-08 12:07:00,79.2,75.6,30.12,South,181,2.0,-999.0,89,-99.99,,,-99.99,custom,2013-08-08 16:07:00,
2013-08-08 12:12:00,79.0,74.8,30.14,SSE,157,2.0,-999.0,87,-99.99,,,-99.99,custom,2013-08-08 16:12:00,
2013-08-08 12:17:00,78.3,74.3,30.13,South,176,3.0,-999.0,87,-99.99,,,-99.99,custom,2013-08-08 16:17:00,
2013-08-08 12:22:00,78.1,74.5,30.13,South,169,5.0,-999.0,89,-99.99,,,-99.99,custom,2013-08-08 16:22:00,
2013-08-08 12:27:00,78.6,75.2,30.14,South,169,3.0,-999.0,89,-99.99,,,-99.99,custom,2013-08-08 16:27:00,
2013-08-08 12:32:00,78.4,75.9,30.13,SW,216,2.0,-999.0,92,-99.99,,,-99.99,custom,2013-08-08 16:32:00,
2013-08-08 12:37:00,77.9,73.9,30.14,South,174,3.0,-999.0,88,-99.99,,,-99.99,custom,2013-08-08 16:37:00,
2013-08-08 12:42:00,79.0,76.1,30.14,SW,216,2.0,-999.0,91,-99.99,,,-99.99,custom,2013-08-08 16:42:00,
2013-08-08 12:47:00,79.0,75.4,30.13,SW,236,1.0,-999.0,89,-99.99,,,-99.99,custom,2013-08-08 16:47:00,
2013-08-08 12:52:00,78.8,74.8,30.14,SSW,211,1.0,-999.0,87,-99.99,,,-99.99,custom,2013-08-08 16:52:00,
2013-08-08 12:57:00,77.7,72.7,30.13,South,178,5.0,-999.0,84,-99.99,,,-99.99,custom,2013-08-08 16:57:00,
2013-08-08 13:02:00,77.9,73.9,30.15,South,177,2.0,-999.0,88,-99.99,,,-99.99,custom,2013-08-08 17:02:00,
2013-08-08 13:07:00,77.4,74.7,30.13,SSW,195,2.0,-999.0,91,-99.99,,,-99.99,custom,2013-08-08 17:07:00,
2013-08-08 13:12:00,76.3,73.9,30.18,South,189,2.0,-999.0,92,-99.99,,,-99.99,custom,2013-08-08 17:12:00,
2013-08-08 13:17:00,75.7,73.4,30.13,South,188,1.0,-999.0,92,-99.99,,,-99.99,custom,2013-08-08 17:17:00,
2013-08-08 17:50:00,80.2,76.5,30.11,SE,142,2.0,-999.0,88,-99.99,,,-99.99,custom,2013-08-08 21:50:00,
2013-08-08 17:55:00,80.8,76.1,30.11,SSE,155,1.0,-999.0,86,-99.99,,,-99.99,custom,2013-08-08 21:55:00,
2013-08-08 18:00:00,81.1,76.6,30.09,South,169,1.0,-999.0,86,-99.99,,,-99.99,custom,2013-08-08 22:00:00,
2013-08-08 18:05:00,81.3,78.6,30.10,South,185,1.0,-999.0,92,-99.99,,,-99.99,custom,2013-08-08 22:05:00,
2013-08-08 18:10:00,80.4,75.9,30.08,SSE,162,1.0,-999.0,86,-99.99,,,-99.99,custom,2013-08-08 22:10:00,
2013-08-08 18:15:00,81.3,76.3,30.09,South,173,2.0,-999.0,85,-99.99,,,-99.99,custom,2013-08-08 22:15:00,
2013-08-08 18:20:00,79.9,75.6,30.09,South,188,1.0,-999.0,87,-99.99,,,-99.99,custom,2013-08-08 22:20:00,
2013-08-08 18:25:00,80.2,77.2,30.11,South,170,2.0,-999.0,90,-99.99,,,-99.99,custom,2013-08-08 22:25:00,
2013-08-08 18:31:00,81.1,76.8,30.08,South,179,1.0,-999.0,87,-99.99,,,-99.99,custom,2013-08-08 22:31:00,
2013-08-08 18:36:00,80.4,77.5,30.10,SSE,167,2.0,-999.0,91,-99.99,,,-99.99,custom,2013-08-08 22:36:00,
2013-08-08 18:41:00,79.3,75.4,30.09,South,179,1.0,-999.0,87,-99.99,,,-99.99,custom,2013-08-08 22:41:00,
2013-08-08 18:46:00,78.4,74.1,30.08,SSE,168,3.0,-999.0,87,-99.99,,,-99.99,custom,2013-08-08 22:46:00,
2013-08-08 18:51:00,78.4,74.5,30.11,South,180,2.0,-999.0,88,-99.99,,,-99.99,custom,2013-08-08 22:51:00,
2013-08-08 18:56:00,77.7,75.0,30.14,South,175,2.0,-999.0,91,-99.99,,,-99.99,custom,2013-08-08 22:56:00,
2013-08-08 19:01:00,77.9,74.8,30.12,South,170,1.0,-999.0,90,-99.99,,,-99.99,custom,2013-08-08 23:01:00,
2013-08-08 19:06:00,78.4,76.3,30.09,SSE,165,2.0,-999.0,93,-99.99,,,-99.99,custom,2013-08-08 23:06:00,
2013-08-08 19:11:00,78.8,76.3,30.11,SSE,164,3.0,-999.0,92,-99.99,,,-99.99,custom,2013-08-08 23:11:00,
2013-08-08 19:16:00,78.1,76.1,30.12,SSE,147,2.0,-999.0,94,-99.99,,,-99.99,custom,2013-08-08 23:16:00,
2013-08-08 19:21:00,77.4,74.5,30.10,SSE,159,2.0,-999.0,91,-99.99,,,-99.99,custom,2013-08-08 23:21:00,
2013-08-08 19:26:00,77.2,75.0,30.11,South,175,1.0,-999.0,93,-99.99,,,-99.99,custom,2013-08-08 23:26:00,
2013-08-08 19:31:00,77.0,76.1,30.08,ESE,113,0.0,-999.0,97,-99.99,,,-99.99,custom,2013-08-08 23:31:00,
2013-08-08 19:36:00,76.5,75.4,30.09,SSE,160,1.0,-999.0,96,-99.99,,,-99.99,custom,2013-08-08 23:36:00,
2013-08-08 19:41:00,76.1,74.3,30.10,SSE,162,2.0,-999.0,94,-99.99,,,-99.99,custom,2013-08-08 23:41:00,
2013-08-08 19:46:00,75.7,74.8,30.11,South,172,2.0,-999.0,97,-99.99,,,-99.99,custom,2013-08-08 23:46:00,
2013-08-08 19:52:00,75.7,74.8,30.09,SSE,156,2.0,-999.0,97,-99.99,,,-99.99,custom,2013-08-08 23:52:00,
2013-08-08 19:57:00,75.7,74.7,30.12,South,169,1.0,-999.0,96,-99.99,,,-99.99,custom,2013-08-08 23:57:00,
2013-08-08 20:02:00,75.7,75.2,30.12,SSE,157,1.0,-999.0,98,-99.99,,,-99.99,custom,2013-08-09 00:02:00,
2013-08-08 20:07:00,75.6,74.8,30.10,SSE,150,2.0,-999.0,97,-99.99,,,-99.99,custom,2013-08-09 00:07:00,
2013-08-08 20:12:00,75.6,74.3,30.13,SSE,168,3.0,-999.0,96,-99.99,,,-99.99,custom,2013-08-09 00:12:00,
2013-08-08 20:17:00,75.0,74.1,30.12,SSE,167,3.0,-999.0,97,-99.99,,,-99.99,custom,2013-08-09 00:17:00,
2013-08-08 20:22:00,75.0,74.7,30.13,SSE,157,2.0,-999.0,99,-99.99,,,-99.99,custom,2013-08-09 00:22:00,
2013-08-08 20:27:00,75.4,75.2,30.13,SSE,150,1.0,-999.0,99,-99.99,,,-99.99,custom,2013-08-09 00:27:00,
2013-08-08 20:32:00,75.0,74.8,30.14,SSE,157,2.0,-999.0,99,-99.99,,,-99.99,custom,2013-08-09 00:32:00,
2013-08-08 20:37:00,75.4,75.0,30.14,SSE,152,2.0,-999.0,99,-99.99,,,-99.99,custom,2013-08-09 00:37:00,
2013-08-08 20:42:00,75.4,74.7,30.13,SSE,148,2.0,-999.0,97,-99.99,,,-99.99,custom,2013-08-09 00:42:00,
2013-08-08 20:47:00,75.2,74.7,30.13,SSE,154,2.0,-999.0,98,-99.99,,,-99.99,custom,2013-08-09 00:47:00,
2013-08-08 20:52:00,75.0,74.8,30.15,SSE,151,1.0,-999.0,99,-99.99,,,-99.99,custom,2013-08-09 00:52:00,
2013-08-08 20:57:00,74.8,74.7,30.17,SSE,156,2.0,-999.0,99,-99.99,,,-99.99,custom,2013-08-09 00:57:00,
2013-08-08 21:02:00,74.7,74.5,30.14,SSE,154,2.0,-999.0,99,-99.99,,,-99.99,custom,2013-08-09 01:02:00,
2013-08-08 21:07:00,74.5,74.1,30.14,SSE,162,2.0,-999.0,99,-99.99,,,-99.99,custom,2013-08-09 01:07:00,
2013-08-08 21:12:00,74.3,74.1,30.14,SSE,167,5.0,-999.0,99,-99.99,,,-99.99,custom,2013-08-09 01:12:00,
2013-08-08 21:17:00,73.8,73.6,30.14,SSE,168,3.0,-999.0,99,-99.99,,,-99.99,custom,2013-08-09 01:17:00,
2013-08-08 21:22:00,73.6,73.4,30.15,SSE,165,2.0,-999.0,99,-99.99,,,-99.99,custom,2013-08-09 01:22:00,
2013-08-08 21:28:00,73.6,73.4,30.15,South,172,3.0,-999.0,99,-99.99,,,-99.99,custom,2013-08-09 01:28:00,
2013-08-08 21:33:00,73.8,73.6,30.14,SSE,159,2.0,-999.0,99,-99.99,,,-99.99,custom,2013-08-09 01:33:00,
2013-08-08 21:38:00,73.2,73.0,30.12,SSE,168,4.0,-999.0,99,-99.99,,,-99.99,custom,2013-08-09 01:38:00,
2013-08-08 21:43:00,73.2,72.9,30.12,South,172,3.0,-999.0,99,-99.99,,,-99.99,custom,2013-08-09 01:43:00,
2013-08-08 21:48:00,73.0,72.9,30.12,South,172,3.0,-999.0,99,-99.99,,,-99.99,custom,2013-08-09 01:48:00,
2013-08-08 21:53:00,73.2,72.9,30.11,South,179,2.0,-999.0,99,-99.99,,,-99.99,custom,2013-08-09 01:53:00,
2013-08-08 21:58:00,73.2,73.0,30.12,SSW,194,1.0,-999.0,99,-99.99,,,-99.99,custom,2013-08-09 01:58:00,
2013-08-08 22:03:00,73.2,73.0,30.13,South,173,2.0,-999.0,99,-99.99,,,-99.99,custom,2013-08-09 02:03:00,
2013-08-08 22:08:00,73.2,72.9,30.14,South,177,2.0,-999.0,99,-99.99,,,-99.99,custom,2013-08-09 02:08:00,
2013-08-08 22:13:00,73.2,73.0,30.13,South,171,3.0,-999.0,99,-99.99,,,-99.99,custom,2013-08-09 02:13:00,
2013-08-08 22:18:00,73.6,73.4,30.14,SSE,158,1.0,-999.0,99,-99.99,,,-99.99,custom,2013-08-09 02:18:00,
2013-08-08 22:23:00,73.6,73.2,30.16,SSE,152,1.0,-999.0,99,-99.99,,,-99.99,custom,2013-08-09 02:23:00,
2013-08-08 22:28:00,73.8,73.6,30.14,SSE,159,2.0,-999.0,99,-99.99,,,-99.99,custom,2013-08-09 02:28:00,
2013-08-08 22:34:00,73.6,73.4,30.11,SSE,158,1.0,-999.0,99,-99.99,,,-99.99,custom,2013-08-09 02:34:00,
2013-08-08 22:39:00,73.4,73.2,30.13,SSE,159,3.0,-999.0,99,-99.99,,,-99.99,custom,2013-08-09 02:39:00,
2013-08-08 22:44:00,73.6,73.4,30.12,SSE,150,2.0,-999.0,99,-99.99,,,-99.99,custom,2013-08-09 02:44:00,
2013-08-08 22:49:00,73.4,73.2,30.12,SSE,166,3.0,-999.0,99,-99.99,,,-99.99,custom,2013-08-09 02:49:00,
2013-08-08 22:54:00,73.2,72.7,30.11,SSE,164,3.0,-999.0,98,-99.99,,,-99.99,custom,2013-08-09 02:54:00,
2013-08-08 22:59:00,73.2,73.0,30.11,SSE,166,4.0,-999.0,99,-99.99,,,-99.99,custom,2013-08-09 02:59:00,
2013-08-08 23:04:00,72.9,72.7,30.08,SSE,166,4.0,-999.0,99,-99.99,,,-99.99,custom,2013-08-09 03:04:00,
2013-08-08 23:09:00,72.9,72.7,30.11,SSE,157,2.0,-999.0,99,-99.99,,,-99.99,custom,2013-08-09 03:09:00,
2013-08-08 23:14:00,72.9,72.7,30.12,South,173,1.0,-999.0,99,-99.99,,,-99.99,custom,2013-08-09 03:14:00,
2013-08-08 23:19:00,72.9,72.7,30.10,SSE,166,3.0,-999.0,99,-99.99,,,-99.99,custom,2013-08-09 03:19:00,
2013-08-08 23:24:00,72.9,72.7,30.14,South,169,2.0,-999.0,99,-99.99,,,-99.99,custom,2013-08-09 03:24:00,
2013-08-08 23:29:00,72.9,72.7,30.09,South,188,2.0,-999.0,99,-99.99,,,-99.99,custom,2013-08-09 03:29:00,
2013-08-08 23:34:00,72.9,72.7,30.09,SSE,168,3.0,-999.0,99,-99.99,,,-99.99,custom,2013-08-09 03:34:00,
2013-08-08 23:39:00,72.9,72.7,30.10,South,172,3.0,-999.0,99,-99.99,,,-99.99,custom,2013-08-09 03:39:00,
2013-08-08 23:44:00,72.5,72.3,30.12,South,173,3.0,-999.0,99,-99.99,,,-99.99,custom,2013-08-09 03:44:00,
2013-08-08 23:49:00,72.9,72.7,30.14,SSE,167,3.0,-999.0,99,-99.99,,,-99.99,custom,2013-08-09 03:49:00,
2013-08-08 23:54:00,72.9,72.7,30.13,SSE,159,2.0,-999.0,99,-99.99,,,-99.99,custom,2013-08-09 03:54:00,
2013-08-08 23:59:00,72.9,72.7,30.13,SSE,156,1.0,-999.0,99,-99.99,,,-99.99,custom,2013-08-09 03:59:00,